This is the latest recevied weather packets stored in our database for station/object K0WOI. If no packets are shown the sender has not sent any weather packets the latest 1 day(s).
| Time | Temp. | Humidity | Pressure | Rain* | Wind** | Luminosity | Snow |
|---|---|---|---|---|---|---|---|
| 1778114696 | 12.22° C | 33% | 1015.3 hPa | 0 mm | - | 17 W/m² | - |
| 1778114394 | 12.22° C | 33% | 1015.1 hPa | 0 mm | - | 19 W/m² | - |
| 1778114089 | 12.78° C | 33% | 1015.2 hPa | 0 mm | - | 22 W/m² | - |
| 1778113784 | 12.78° C | 34% | 1015.3 hPa | 0 mm | - | 26 W/m² | - |
| 1778113481 | 12.78° C | 33% | 1015.2 hPa | 0 mm | - | 27 W/m² | - |
| 1778113178 | 12.78° C | 33% | 1015.3 hPa | 0 mm | - | 29 W/m² | - |
| 1778112874 | 13.33° C | 35% | 1015.5 hPa | 0 mm | - | 31 W/m² | - |
| 1778111356 | 12.78° C | 33% | 1015.7 hPa | 0 mm | - | 56 W/m² | - |
| 1778108324 | 13.89° C | 29% | 1015.9 hPa | 0 mm | - | 92 W/m² | - |
| 1778108022 | 13.89° C | 31% | 1015.8 hPa | 0 mm | - | 227 W/m² | - |
| 1778107719 | 12.78° C | 31% | 1015.9 hPa | 0 mm | - | 94 W/m² | - |
| 1778105288 | 13.33° C | 30% | 1015.8 hPa | 0 mm | - | 108 W/m² | - |
| 1778104375 | 13.89° C | 31% | 1015.8 hPa | 0 mm | - | 159 W/m² | - |
| 1778104071 | 13.89° C | 30% | 1015.8 hPa | 0 mm | - | 201 W/m² | - |
| 1778102861 | 13.33° C | 32% | 1015.9 hPa | 0 mm | - | 357 W/m² | - |
| 1778100432 | 12.22° C | 33% | 1016.6 hPa | 0 mm | - | 139 W/m² | - |
| 1778098615 | 13.33° C | 35% | 1016.6 hPa | 0 mm | - | 127 W/m² | - |
| 1778098311 | 13.33° C | 33% | 1016.7 hPa | 0 mm | - | 780 W/m² | - |
| 1778098008 | 13.33° C | 33% | 1016.7 hPa | 0 mm | - | 255 W/m² | - |
| 1778095583 | 12.22° C | 34% | 1017 hPa | 0 mm | - | 416 W/m² | - |
| 1778094976 | 12.78° C | 35% | 1017.1 hPa | 0 mm | - | 215 W/m² | - |
| 1778091944 | 12.22° C | 35% | 1017.2 hPa | 0 mm | - | 227 W/m² | - |
| 1778089822 | 12.22° C | 36% | 1017.7 hPa | 0 mm | - | 245 W/m² | - |
| 1778089521 | 11.67° C | 37% | 1017.7 hPa | 0 mm | - | 332 W/m² | - |
| 1778089216 | 11.67° C | 36% | 1017.7 hPa | 0 mm | - | 349 W/m² | - |
* Rain latest hour (hover to see other rain measurements)
** Current wind speed in m/s (hover to see current wind gust speed)